Weather History for Spencer, IA

Change the Weather History Date:

Friday, April 18, 2014

  Actual Average Record
Temperature  
Mean Temperature 46 °F -  
Max Temperature 64 °F 60 °F 89 °F (1985)
Min Temperature 28 °F 38 °F 23 °F (1983)
Degree Days  
Heating Degree Days 19    
Moisture  
Dew Point 31 °F    
Average Humidity 59    
Maximum Humidity 89    
Minimum Humidity 29    
Precipitation  
Precipitation 0.00 in - - ()
Sea Level Pressure  
Sea Level Pressure 30.23 in    
Wind  
Wind Speed 12 mph (SE)    
Max Wind Speed 29 mph    
Max Gust Speed 37 mph    
Visibility 9 miles    
Events      
Averages and records for this station are not official NWS values.
T = Trace of Precipitation, MM = Missing Value Source: NWS Daily Summary

Daily Weather History Graph

Daily Weather History Graph

Search for Another Location

Airport:

Trip Planner

Search our weather history database for the weather conditions in past years. The results will help you decide how hot, cold, wet, or windy it might be!

Date:

Astronomy

Apr. 18, 2014 Rise Set
Actual Time 6:33 AM CDT 8:07 PM CDT
Civil Twilight 6:04 AM CDT 8:37 PM CDT
Nautical Twilight 5:27 AM CDT 9:13 PM CDT
Astronomical Twilight 4:49 AM CDT 9:52 PM CDT
Moon 11:57 PM CDT (4/18) 8:53 AM CDT (4/18)
Length of Visible Light 14h 33m
Length of Day
13h 33m
Waning Gibbous, 87% of the Moon is Illuminated
Apr 18
Waning Gibbous
Apr 22
Last Quarter
Apr 29
New
May 6
First Quarter
May 14
Full

Hourly Weather History & Observations

Time (CDT) Temp. Windchill Dew Point Humidity Pressure Visibility Wind Dir Wind Speed Gust Speed Precip Events Conditions
12:53 AM 30.0 °F 25.2 °F 26.1 °F 85% 30.34 in 10.0 mi ENE 4.6 mph - N/A   Scattered Clouds
1:53 AM 30.0 °F 24.1 °F 26.1 °F 85% 30.33 in 8.0 mi East 5.8 mph - N/A   Overcast
2:53 AM 30.0 °F 24.1 °F 27.0 °F 88% 30.32 in 8.0 mi ESE 5.8 mph - N/A   Scattered Clouds
3:53 AM 30.0 °F 22.4 °F 27.0 °F 88% 30.32 in 6.0 mi East 8.1 mph - N/A   Scattered Clouds
4:53 AM 28.9 °F 22.8 °F 26.1 °F 89% 30.32 in 6.0 mi ESE 5.8 mph - N/A   Mostly Cloudy
5:53 AM 30.9 °F 23.5 °F 28.0 °F 89% 30.32 in 6.0 mi ESE 8.1 mph - N/A   Overcast
6:53 AM 30.0 °F 22.4 °F 27.0 °F 88% 30.34 in 4.0 mi SE 8.1 mph - N/A   Mostly Cloudy
7:53 AM 33.1 °F 24.9 °F 28.9 °F 85% 30.34 in 5.0 mi SE 10.4 mph - N/A   Clear
8:53 AM 37.9 °F 29.2 °F 32.0 °F 79% 30.33 in 7.0 mi SE 15.0 mph - N/A   Clear
9:53 AM 43.0 °F 36.4 °F 33.1 °F 68% 30.32 in 10.0 mi SE 12.7 mph - N/A   Clear
10:53 AM 46.9 °F - 33.1 °F 59% 30.32 in 10.0 mi SE 17.3 mph - N/A   Partly Cloudy
11:53 AM 52.0 °F - 34.0 °F 50% 30.29 in 10.0 mi SE 17.3 mph - N/A   Mostly Cloudy
12:53 PM 55.9 °F - 33.1 °F 42% 30.27 in 10.0 mi SSE 20.7 mph 27.6 mph N/A   Clear
1:53 PM 60.1 °F - 32.0 °F 35% 30.24 in 10.0 mi SSE 20.7 mph - N/A   Clear
2:53 PM 62.1 °F - 32.0 °F 32% 30.21 in 10.0 mi SSE 23.0 mph 28.8 mph N/A   Clear
3:53 PM 63.0 °F - 33.1 °F 33% 30.17 in 10.0 mi SSE 24.2 mph 34.5 mph N/A   Clear
4:53 PM 64.0 °F - 30.9 °F 29% 30.14 in 10.0 mi SSE 28.8 mph 36.8 mph N/A   Clear
5:53 PM 64.0 °F - 32.0 °F 30% 30.13 in 10.0 mi SSE 25.3 mph 36.8 mph N/A   Clear
6:53 PM 61.0 °F - 30.9 °F 32% 30.10 in 10.0 mi SSE 23.0 mph 34.5 mph N/A   Clear
7:53 PM 57.9 °F - 32.0 °F 37% 30.10 in 10.0 mi SE 17.3 mph - N/A   Clear
8:53 PM 55.0 °F - 33.1 °F 43% 30.10 in 10.0 mi SE 17.3 mph - N/A   Clear
9:53 PM 54.0 °F - 32.0 °F 43% 30.10 in 10.0 mi SE 18.4 mph - N/A   Clear
10:53 PM 52.0 °F - 33.1 °F 49% 30.08 in 10.0 mi SE 18.4 mph - N/A   Clear
11:53 PM 51.1 °F - 34.0 °F 52% 30.07 in 10.0 mi SE 18.4 mph - N/A   Clear